• In Portugal
  • List of Countries
  • For 7 days
  • Water Temperature
  • Satellite Maps
  • Weather Map
  • Weather Widgets
  • user-avatar
    Login

    Hourly Weather Sevan

    Today, 20 July, Friday

    Time Temperature Precipitation Wind Pressure Humidity
    00:00 +19°C° 0 mm 3 mps 638 mmHg 78%
    01:00 +19°C° 0 mm 2 mps 637 mmHg 78%
    02:00 +18°C° 0 mm 2 mps 637 mmHg 77%
    03:00 +18°C° 0 mm 2 mps 637 mmHg 77%
    04:00 +18°C° 0 mm 2 mps 637 mmHg 72%
    05:00 +19°C° 0 mm 2 mps 638 mmHg 67%
    06:00 +21°C° 0 mm 1 mps 638 mmHg 63%
    07:00 +23°C° 0 mm 2 mps 638 mmHg 54%
    08:00 +25°C° 0 mm 2 mps 639 mmHg 44%
    09:00 +28°C° 0 mm 2 mps 639 mmHg 38%
    10:00 +29°C° 0 mm 2 mps 639 mmHg 34%
    11:00 +30°C° 0 mm 3 mps 639 mmHg 30%
    12:00 +31°C° 0 mm 3 mps 640 mmHg 26%
    13:00 +31°C° 0 mm 3 mps 639 mmHg 26%
    14:00 +33°C° 0 mm 3 mps 639 mmHg 26%
    15:00 +33°C° 0 mm 3 mps 639 mmHg 29%
    16:00 +31°C° 0.4 mm 3 mps 639 mmHg 32%
    17:00 +30°C° 0.4 mm 3 mps 638 mmHg 36%
    18:00 +29°C° 0.4 mm 3 mps 638 mmHg 39%
    19:00 +27°C° 0.3 mm 3 mps 638 mmHg 47%
    20:00 +24°C° 0.3 mm 3 mps 638 mmHg 56%
    21:00 +21°C° 0.3 mm 3 mps 638 mmHg 64%
    22:00 +20°C° 0 mm 3 mps 638 mmHg 66%
    23:00 +19°C° 0 mm 3 mps 638 mmHg 68%

    Tomorrow, 21 July, Saturday

    Time Temperature Precipitation Wind Pressure Humidity
    00:00 +19°C° 0 mm 3 mps 638 mmHg 70%
    01:00 +18°C° 0 mm 3 mps 638 mmHg 72%
    02:00 +18°C° 0 mm 2 mps 638 mmHg 74%
    03:00 +17°C° 0 mm 2 mps 638 mmHg 77%
    04:00 +17°C° 0 mm 2 mps 638 mmHg 76%
    05:00 +18°C° 0 mm 2 mps 638 mmHg 75%
    06:00 +18°C° 0 mm 2 mps 639 mmHg 74%
    07:00 +20°C° 0 mm 2 mps 639 mmHg 66%
    08:00 +23°C° 0 mm 2 mps 640 mmHg 58%
    09:00 +25°C° 0 mm 2 mps 640 mmHg 50%
    10:00 +26°C° 0 mm 2 mps 640 mmHg 46%
    11:00 +28°C° 0 mm 2 mps 640 mmHg 42%
    12:00 +29°C° 0 mm 2 mps 640 mmHg 38%
    13:00 +29°C° 0.1 mm 2 mps 640 mmHg 37%
    14:00 +29°C° 0.1 mm 2 mps 640 mmHg 37%
    15:00 +30°C° 0.1 mm 3 mps 640 mmHg 36%
    16:00 +29°C° 0.1 mm 3 mps 640 mmHg 41%
    17:00 +28°C° 0.1 mm 3 mps 639 mmHg 46%
    18:00 +27°C° 0.1 mm 4 mps 639 mmHg 50%
    19:00 +25°C° 0.3 mm 3 mps 639 mmHg 57%
    20:00 +22°C° 0.3 mm 3 mps 639 mmHg 64%
    21:00 +20°C° 0.3 mm 3 mps 639 mmHg 71%
    22:00 +19°C° 0.1 mm 3 mps 639 mmHg 72%
    23:00 +19°C° 0.1 mm 3 mps 639 mmHg 73%

    Day after tomorrow, 22 July, Sunday

    Time Temperature Precipitation Wind Pressure Humidity
    00:00 +18°C° 0.1 mm 3 mps 639 mmHg 75%
    01:00 +18°C° 0.1 mm 3 mps 639 mmHg 77%
    02:00 +17°C° 0.1 mm 2 mps 639 mmHg 79%
    03:00 +17°C° 0.1 mm 2 mps 639 mmHg 81%
    04:00 +17°C° 0 mm 2 mps 639 mmHg 80%
    05:00 +18°C° 0 mm 2 mps 639 mmHg 80%
    06:00 +18°C° 0 mm 2 mps 639 mmHg 79%
    07:00 +20°C° 0 mm 2 mps 640 mmHg 72%
    08:00 +23°C° 0 mm 2 mps 640 mmHg 65%
    09:00 +24°C° 0 mm 2 mps 640 mmHg 58%
    10:00 +25°C° 0.1 mm 2 mps 640 mmHg 54%
    11:00 +26°C° 0.1 mm 2 mps 640 mmHg 50%
    12:00 +27°C° 0.1 mm 2 mps 640 mmHg 46%
    13:00 +28°C° 0.2 mm 3 mps 640 mmHg 45%
    14:00 +28°C° 0.2 mm 3 mps 639 mmHg 44%
    15:00 +29°C° 0.2 mm 3 mps 639 mmHg 42%
    16:00 +28°C° 0.4 mm 3 mps 639 mmHg 46%
    17:00 +27°C° 0.4 mm 3 mps 639 mmHg 50%
    18:00 +25°C° 0.4 mm 3 mps 638 mmHg 54%
    19:00 +24°C° 0.5 mm 3 mps 638 mmHg 60%
    20:00 +22°C° 0.5 mm 3 mps 639 mmHg 65%
    21:00 +20°C° 0.5 mm 2 mps 639 mmHg 71%
    22:00 +20°C° 0.2 mm 2 mps 638 mmHg 74%
    23:00 +19°C° 0.2 mm 2 mps 638 mmHg 76%

    23 July, Monday

    Time Temperature Precipitation Wind Pressure Humidity
    00:00 +18°C° 0.2 mm 2 mps 638 mmHg 78%
    01:00 +18°C° 0.2 mm 2 mps 638 mmHg 80%
    02:00 +18°C° 0.2 mm 2 mps 638 mmHg 81%
    03:00 +17°C° 0.2 mm 2 mps 638 mmHg 83%
    04:00 +18°C° 0.1 mm 2 mps 638 mmHg 82%
    05:00 +18°C° 0.1 mm 2 mps 638 mmHg 82%
    06:00 +18°C° 0.1 mm 2 mps 638 mmHg 81%
    07:00 +20°C° 0.1 mm 2 mps 638 mmHg 73%
    08:00 +23°C° 0.1 mm 2 mps 639 mmHg 65%
    09:00 +24°C° 0.1 mm 2 mps 639 mmHg 56%
    10:00 +26°C° 0.6 mm 2 mps 639 mmHg 52%
    11:00 +27°C° 0.6 mm 2 mps 639 mmHg 48%
    12:00 +28°C° 0.6 mm 2 mps 639 mmHg 43%
    13:00 +29°C° 0.7 mm 2 mps 639 mmHg 42%
    14:00 +29°C° 0.7 mm 2 mps 639 mmHg 41%
    15:00 +29°C° 0.7 mm 3 mps 638 mmHg 40%
    16:00 +28°C° 1.2 mm 3 mps 638 mmHg 46%
    17:00 +26°C° 1.2 mm 2 mps 638 mmHg 53%
    18:00 +25°C° 1.2 mm 2 mps 638 mmHg 60%
    19:00 +23°C° 0.6 mm 2 mps 638 mmHg 64%
    20:00 +21°C° 0.6 mm 2 mps 638 mmHg 68%
    21:00 +20°C° 0.6 mm 2 mps 638 mmHg 72%
    22:00 +19°C° 0.6 mm 2 mps 638 mmHg 74%
    23:00 +19°C° 0.6 mm 2 mps 638 mmHg 76%

    24 July, Tuesday

    Time Temperature Precipitation Wind Pressure Humidity
    00:00 +18°C° 0.6 mm 2 mps 638 mmHg 78%
    01:00 +18°C° 0.5 mm 2 mps 638 mmHg 80%
    02:00 +17°C° 0.5 mm 2 mps 638 mmHg 81%
    03:00 +18°C° 0.5 mm 1 mps 638 mmHg 82%
    04:00 +18°C° 0.1 mm 1 mps 638 mmHg 80%
    05:00 +19°C° 0.1 mm 1 mps 638 mmHg 78%
    06:00 +19°C° 0.1 mm 1 mps 639 mmHg 76%
    07:00 +21°C° 0.1 mm 1 mps 639 mmHg 66%
    08:00 +23°C° 0.1 mm 1 mps 640 mmHg 57%
    09:00 +26°C° 0.1 mm 2 mps 640 mmHg 48%
    10:00 +27°C° 0.1 mm 2 mps 640 mmHg 43%
    11:00 +28°C° 0.1 mm 2 mps 640 mmHg 39%
    12:00 +30°C° 0.1 mm 2 mps 640 mmHg 35%
    13:00 +30°C° 0 mm 2 mps 640 mmHg 33%
    14:00 +31°C° 0 mm 2 mps 640 mmHg 32%
    15:00 +31°C° 0 mm 2 mps 640 mmHg 30%
    16:00 +31°C° 0 mm 2 mps 640 mmHg 34%
    17:00 +30°C° 0 mm 2 mps 640 mmHg 37%
    18:00 +29°C° 0 mm 1 mps 640 mmHg 40%
    19:00 +27°C° 0 mm 2 mps 640 mmHg 47%
    20:00 +25°C° 0 mm 2 mps 640 mmHg 54%
    21:00 +23°C° 0 mm 2 mps 640 mmHg 61%
    22:00 +21°C° 0 mm 2 mps 640 mmHg 64%
    23:00 +21°C° 0 mm 2 mps 640 mmHg 67%

    25 July, Wednesday

    Time Temperature Precipitation Wind Pressure Humidity
    00:00 +20°C° 0 mm 2 mps 640 mmHg 70%
    01:00 +20°C° 0 mm 2 mps 640 mmHg 70%
    02:00 +20°C° 0 mm 2 mps 640 mmHg 70%
    03:00 +20°C° 0 mm 2 mps 640 mmHg 70%
    04:00 +20°C° 0 mm 2 mps 640 mmHg 68%
    05:00 +20°C° 0 mm 2 mps 640 mmHg 67%
    06:00 +22°C° 0 mm 1 mps 641 mmHg 65%
    07:00 +24°C° 0 mm 1 mps 641 mmHg 57%
    08:00 +26°C° 0 mm 2 mps 642 mmHg 48%
    09:00 +29°C° 0 mm 2 mps 642 mmHg 40%
    10:00 +30°C° 0 mm 2 mps 642 mmHg 36%
    11:00 +31°C° 0 mm 2 mps 642 mmHg 33%
    12:00 +34°C° 0 mm 2 mps 642 mmHg 30%
    13:00 +34°C° 0 mm 2 mps 642 mmHg 29%
    14:00 +35°C° 0 mm 3 mps 642 mmHg 29%
    15:00 +35°C° 0 mm 3 mps 641 mmHg 28%
    16:00 +34°C° 0 mm 3 mps 641 mmHg 32%
    17:00 +32°C° 0 mm 2 mps 641 mmHg 37%
    18:00 +31°C° 0 mm 2 mps 640 mmHg 42%
    19:00 +29°C° 0 mm 2 mps 640 mmHg 50%
    20:00 +27°C° 0 mm 3 mps 640 mmHg 58%
    21:00 +25°C° 0 mm 3 mps 640 mmHg 66%
    22:00 +24°C° 0 mm 3 mps 640 mmHg 66%
    23:00 +24°C° 0 mm 3 mps 640 mmHg 67%
    Show more